Flag for U.S.A. Weather past 2 weeks in Lafayette, Louisiana, U.S.A.

Now
71 °F

Clear.


Feels Like: 69 °F
Forecast: 70 / 89 °F
Wind: 3 mph from Northeast

Location: Lafayette Regional Airport

Current Time: Jul 30, 2014 at 6:37:06 AM

Latest Report: Jul 30, 2014 at 5:53 AM


Visibility: 10 mi

Pressure: 30.06 "Hg

Humidity: 87%

Dew point: 67 °F

Location of LafayetteLocation

Historic Weather in Lafayette — Graph

°F

Lafayette temperature yesterday

Maximum temperature yesterday: 89 °F (at 3:53 PM)
Minimum temperature yesterday: 76 °F (at 10:53 PM)
Average temperature yesterday: 82 °F

Past Weeks' High & Low Weather Summary

 TemperatureHumidityPressure
High93 °F (Jul 27, 3:53 PM)97% (Jul 18, 5:03 AM)30.11 "Hg (Jul 18, 5:03 AM)
Low67 °F (Jul 17, 6:53 AM)46% (Jul 16, 2:53 PM)29.90 "Hg (Jul 18, 6:53 PM)
Average80 °F80%30.00 "Hg
* Reported Jul 15 4:53 AM — Jul 30 4:53 AM, Lafayette, Weather by CustomWeather, © 2014

Note: Actual official high and low records may vary slightly from our data, if they occured in-between our weather recording intervals... More about our weather records

Advertising

Lafayette weather history for previous 24 hours

 ConditionsComfort  
Time TempWeatherWind HumidityBarometerVisibility
4:53 AM
Jul 30
72 °FPassing clouds.3 mph91%30.06 "Hg10 mi
3:53 AM72 °FOvercast.5 mph91%30.06 "Hg10 mi
2:53 AM73 °FClear.No wind88%30.05 "Hg10 mi
1:53 AM73 °FClear.5 mph88%30.05 "Hg10 mi
12:53 AM75 °FPassing clouds.No wind90%30.04 "Hg10 mi
11:53 PM
Jul 29
76 °FClear.No wind91%30.05 "Hg10 mi
10:53 PM76 °FClear.No wind91%30.04 "Hg10 mi
9:53 PM77 °FClear.No wind88%30.03 "Hg10 mi
8:53 PM78 °FSunny.No wind84%30.03 "Hg10 mi
7:53 PM81 °FSunny.3 mph60%30.03 "Hg10 mi
6:53 PM83 °FSunny.7 mph55%30.02 "Hg10 mi
5:53 PM86 °FSunny.12 mph51%30.03 "Hg10 mi
4:53 PM87 °FSunny.12 mph46%30.03 "Hg10 mi
3:53 PM89 °FPassing clouds.10 mph50%30.04 "Hg10 mi
2:53 PM88 °FPassing clouds.8 mph48%30.04 "Hg10 mi
1:53 PM88 °FSunny.6 mph46%30.06 "Hg10 mi
12:53 PM87 °FScattered clouds.9 mph55%30.06 "Hg10 mi
11:53 AM85 °FPartly sunny.6 mph65%30.09 "Hg10 mi
10:53 AM83 °FScattered clouds.5 mph68%30.09 "Hg10 mi
9:53 AM81 °FScattered clouds.5 mph79%30.09 "Hg10 mi
8:53 AM77 °FPartly sunny.6 mph89%30.08 "Hg10 mi
7:53 AM77 °FOvercast.5 mph94%30.08 "Hg10 mi
6:53 AM77 °FPassing clouds.5 mph89%30.07 "Hg10 mi
Weather by CustomWeather, © 2014

See weather overviewHow to use our weather pages